Regional Weather Roundup
Issued by NWS

Home | Current Version | Previous Version | Text Only | Print | Product List | Glossary On
Versions: 1 2 3 4 5 6 7 8 9 10 11 12 13 14 15 16 17 18 19 20 21 22 23 24 25 26 27 28 29 30 31 32 33 34 35 36 37 38 39 40 41 42 43 44 45 46 47 48 49 50
000
ASUS42 KTBW 231817
RWRFL
FLORIDA REGIONAL WEATHER ROUNDUP
NATIONAL WEATHER SERVICE TAMPA BAY RUSKIN FL
200 PM EDT WED AUG 23 2017

NOTE: "FAIR" INDICATES FEW OR NO CLOUDS BELOW 12,000 FEET WITH NO
SIGNIFICANT WEATHER AND/OR OBSTRUCTIONS TO VISIBILITY.

FLZ001>010-012>015-112-114-115-231900-
PANHANDLE FLORIDA

CITY           SKY/WX    TMP DP  RH WIND       PRES   REMARKS
PENSACOLA      MOSUNNY   92  72  51 N7        29.95F HX  99
PENSACOLA NAS  PTSUNNY   89  71  55 W5        29.95F HX  95
MILTON NAS     PTSUNNY   90  74  59 NW3       29.95F HX  99
DUKE FIELD     MOSUNNY   91  70  49 N5        29.95F HX  97
VALPARAISO     PTSUNNY   88  72  58 CALM      29.94F HX  95
PANAMA CITY    NOT AVBL
TYNDALL AFB    SUNNY     90  73  58 SW6       29.94F HX  98

STATION/POSITION SKY/WX   TEMP    WIND        PRES    WAVE   SWELL
                          AIR SEA DIR/SP/G            HT/PER HT/PER
                          (F)     (DEG/KT/KT) (MB)    (FT/S) (FT/S)
30.1N   87.6W              83 88   70/  4/  6 1014.3F   2/ 6   2/ 6
29.2N   88.2W              85 87   60/  6/  8 1014.1
28.8N   86.0W              85 87   70/ 10/ 12 1014.0F   3/ 8   3/ 8
PANAMA CITY BEAC           85     230/  6/  7 1014.6F
TOWER C                    83                 1014.9F
28.5N   84.5W              85 87   60/  8/ 10 1014.1F   2/ 8   2/ 8

$$
FLZ011-016>038-118-127-128-134-139-239-231900-
NORTH FLORIDA

CITY           SKY/WX    TMP DP  RH WIND       PRES   REMARKS
TALLAHASSEE    NOT AVBL
PERRY          SUNNY     92  71  50 NW3       29.95F HX  99
LIVE OAK       MOSUNNY   91  73  55 CALM      29.96F HX 100
CROSS CITY     MOSUNNY   91  70  49 NE8       29.99F HX  97
LAKE CITY      FAIR      90  72  55 N8        29.94F HX  96
GAINESVILLE    CLOUDY    91  73  55 N6        29.96F HX  99
WILLISTON      SUNNY     93  75  55 CALM      29.95  HX 104
PALATKA        PTSUNNY   91  75  59 NE5       29.94F HX 102
MAYPORT NAS    MOSUNNY   91  75  59 E8        29.94F HX 101
JACKSONVILLE   PTSUNNY   93  72  50 N5        29.93F HX 101
JAX NAS        PTSUNNY   91  72  53 VRB3      29.94F HX  98
JAX CECIL      PTSUNNY   91  73  55 VRB5      29.93F HX 100
FERNANDINA BEA FAIR      90  73  58 E7        29.93F HX  98
ST AUGUSTINE   SUNNY     88  76  67 E9        29.95F HX  99
PALM COAST     SUNNY     90  70  51 E9        29.94F HX  95

STATION/POSITION SKY/WX   TEMP    WIND        PRES    WAVE   SWELL
                          AIR SEA DIR/SP/G            HT/PER HT/PER
                          (F)     (DEG/KT/KT) (MB)    (FT/S) (FT/S)
SHELL POINT      NOT AVBL
KEATON BEACH               85     270/ 10/ 11 1013.8F
CEDAR KEY                  87     250/  6/  8 1014.3F
FERNANDINA                 93 86   80/  4/  6 1014.7F
30.7N   81.3W                 87                N/A     3/10   2/11
MAYPORT                    87 85   80/  7/ 10 1014.5F
31.4N   80.9W              84 87  170/  6/  8 1013.7F   3/10   3/10
ST AUGUSTINE               84 84   80/  7/  7 1014.6F

$$
FLZ040-043>046-052-053-057-058-063-144-231900-
INTERIOR CENTRAL FLORIDA

CITY           SKY/WX    TMP DP  RH WIND       PRES   REMARKS
THE VILLAGES     N/A     91  75  59 E5        29.84F HX 102
ORLANDO INTL   PTSUNNY   93  74  53 E8        29.93F HX 103
KISSIMMEE      PTSUNNY   91  74  57 E6        29.93F HX 100
WINTER HAVEN   PTSUNNY   90  70  51 E8        29.93F HX  95
SEBRING        FAIR      93  71  48 NE7       29.91F HX  99
OKEECHOBEE     PTSUNNY   90  75  62 N15       29.91F HX 100

$$
FLZ041-047-054-059-064-141-147-231900-
EAST CENTRAL FLORIDA

CITY           SKY/WX    TMP DP  RH WIND       PRES   REMARKS
ORMOND BEACH   SUNNY     86  75  70 E6        29.95F HX  95
DAYTONA BEACH  MOSUNNY   90  75  61 NE8       29.95F HX 100
DELAND         CLOUDY    90  72  55 N7        29.93F HX  96
NEW SMYRNA BEA MOSUNNY   86  77  74 NE10      29.96F HX  97
JFK SPACE CTR  PTSUNNY   89  80  75 E12       29.93F HX 105
TITUSVILLE     MOSUNNY   93  73  52 E10       29.94F HX 102
CAPE CANAVERAL PTSUNNY   88  78  72 E10       29.93F HX 101
PATRICK AFB    PTSUNNY   87  78  74 NE12      29.93F HX 100
MELBOURNE      NOT AVBL
FT PIERCE      LGT RAIN  88  77  69 E9        29.93F HX 100
STUART         MOSUNNY   88  81  79 N8        29.94F HX 105

STATION/POSITION SKY/WX   TEMP    WIND        PRES    WAVE   SWELL
                          AIR SEA DIR/SP/G            HT/PER HT/PER
                          (F)     (DEG/KT/KT) (MB)    (FT/S) (FT/S)
28.5N   80.2W              82 82   40/  6/  8 1015.3F   3/ 9   3/ 9
28.9N   78.5W              83 85  170/ 10/ 14 1014.6
TRIDENT PIER               87 86   70/  8/ 12 1015.5F
28.4N   80.5W                 86                N/A     2/ 9
27.5N   80.2W                 84                N/A     2/ 9

$$
FLZ050-056-061-142-242-148-248-149-249-151-251-155-255-
160-260-231900-
WEST CENTRAL FLORIDA

CITY           SKY/WX    TMP DP  RH WIND       PRES   REMARKS
CRYSTAL RIVER  PTSUNNY   93  72  49 N7        29.93F HX 100
INVERNESS      FAIR      91  73  55 E8        29.94F HX 100
BROOKSVILLE    NOT AVBL
CLEARWATER AIR FAIR      90  70  51 NE6       29.92F HX  95
ST PETE CLEARW MOSUNNY   93  71  48 N6        29.92F HX 100
TAMPA INTL     PTSUNNY   91  73  55 N6        29.92F HX  99
TAMPA EXEC     PTSUNNY   95  75  52 NE3       29.93F HX 107
PLANT CITY     MOSUNNY   93  77  59 NE9       29.94F HX 107
MACDILL AFB    MOSUNNY   94  77  58 NE8       29.91F HX 107
PETER O KNIGHT CLOUDY    95  77  55 NE12      29.92F HX 109
ST PETERSBURG  NOT AVBL
SARASOTA       NOT AVBL
VENICE         TSTM      79  77  94 W12       29.94R

STATION/POSITION SKY/WX   TEMP    WIND        PRES    WAVE   SWELL
                          AIR SEA DIR/SP/G            HT/PER HT/PER
                          (F)     (DEG/KT/KT) (MB)    (FT/S) (FT/S)
CLEARWATER BEACH           85 88  340/ 13/ 15 1013.5F
MIDDLE TAMPA BAY           85     360/  5/  8 1013.5F
VENICE                     77 88  260/ 11/ 12 1013.3F

$$
FLZ066-069-070-075>078-162-262-165-265-231900-
SOUTHWEST FLORIDA AND KEYS

CITY           SKY/WX    TMP DP  RH WIND       PRES   REMARKS
PUNTA GORDA    MOSUNNY   92  73  53 SE5       29.91F HX 100
FT MYERS       MOSUNNY   90  75  61 CALM      29.89F HX 100
SOUTHWEST INTL PTSUNNY   90  75  61 NE9       29.90F HX 100
IMMOKALEE      FAIR      91  75  59 N10       29.90F HX 102
MARATHON       CLOUDY    85  80  85 N5        29.90F HX  99
KEY WEST NAS   PTSUNNY   87  80  79 S8        29.90F HX 103
KEY WEST INTL  NOT AVBL

STATION/POSITION SKY/WX   TEMP    WIND        PRES    WAVE   SWELL
                          AIR SEA DIR/SP/G            HT/PER HT/PER
                          (F)     (DEG/KT/KT) (MB)    (FT/S) (FT/S)
NAPLES                        89  270/  5/  8 1012.4F
DRY TORTUGAS               86      30/  5/  7 1012.4F
SAND KEY                   84                 1013.2F
MOLASSES REEF              81 86  230/  5/  6 1013.4

$$
FLZ067-068-071>074-168-172>174-231900-
SOUTHEAST FLORIDA

CITY           SKY/WX    TMP DP  RH WIND       PRES   REMARKS
W PALM BEACH   CLOUDY    88  75  65 E13       29.91F HX  97
FT LAUDERDALE  CLOUDY    86  77  74 SE12      29.90F HX  97
POMPANO BEACH  CLOUDY    89  76  65 E12       29.91F HX 100
PEMBROKE PINES MOSUNNY   84  75  74 NE6       29.92F
MIAMI          NOT AVBL
WEST KENDALL   CLOUDY    83  74  74 CALM      29.91F
HOMESTEAD      CLOUDY    81  78  89 CALM      29.91F

STATION/POSITION SKY/WX   TEMP    WIND        PRES    WAVE   SWELL
                          AIR SEA DIR/SP/G            HT/PER HT/PER
                          (F)     (DEG/KT/KT) (MB)    (FT/S) (FT/S)
PORT EVERGLADES            86     130/  6/  9 1013.3F
VIRGINIA KEY               85 88  130/  3/  5 1012.4F
LAKE WORTH                        100/  8/  9   N/A
FOWEY ROCKS                84 86  130/  7/  7 1013.4F
SETTLEMENT POINT           85     150/ 12/ 15 1013.8F

$$




USA.gov is the U.S. government's official web portal to all federal, state and local government web resources and services.